Time,TemperatureF,DewpointF,PressureIn,WindDirection,WindDirectionDegrees,WindSpeedMPH,WindSpeedGustMPH,Humidity,HourlyPrecipIn,Conditions,Clouds,dailyrainin,SolarRadiationWatts/m^2,SoftwareType,DateUTC
2013-10-18 00:01:00,63.3,61.9,29.71,South,173,0.0,7.0,95,0.00,,,0.01,0.0,meteohub,2013-10-18 04:01:00,
2013-10-18 00:02:00,63.3,61.9,29.71,SSE,156,4.0,7.0,95,0.00,,,0.01,0.0,meteohub,2013-10-18 04:02:00,
2013-10-18 00:03:00,63.1,61.7,29.71,South,170,4.0,7.0,95,0.00,,,0.01,0.0,meteohub,2013-10-18 04:03:00,
2013-10-18 00:05:00,63.3,61.9,29.71,SSE,159,2.0,7.0,95,0.00,,,0.01,0.0,meteohub,2013-10-18 04:05:00,
2013-10-18 00:10:00,63.3,61.9,29.70,South,173,4.0,8.0,95,0.00,,,0.01,0.0,meteohub,2013-10-18 04:10:00,
2013-10-18 00:15:00,63.3,61.9,29.70,SE,146,5.0,11.0,95,0.00,,,0.01,0.0,meteohub,2013-10-18 04:15:00,
2013-10-18 00:20:00,63.3,61.9,29.70,SSW,206,11.0,11.0,95,0.00,,,0.01,0.0,meteohub,2013-10-18 04:20:00,
2013-10-18 00:25:00,63.3,61.9,29.70,SSE,157,4.0,11.0,95,0.00,,,0.01,0.0,meteohub,2013-10-18 04:25:00,
2013-10-18 00:31:00,63.3,61.9,29.70,South,180,6.0,11.0,95,0.00,,,0.01,0.0,meteohub,2013-10-18 04:31:00,
2013-10-18 00:36:00,63.3,61.5,29.70,South,169,0.0,12.0,94,0.00,,,0.01,0.0,meteohub,2013-10-18 04:36:00,
2013-10-18 00:41:00,63.3,61.5,29.69,ENE,67,1.0,12.0,94,0.00,,,0.01,0.0,meteohub,2013-10-18 04:41:00,
2013-10-18 00:46:00,63.3,61.5,29.70,South,173,4.0,11.0,94,0.00,,,0.01,0.0,meteohub,2013-10-18 04:46:00,
2013-10-18 00:51:00,63.3,61.9,29.69,SSW,194,8.0,13.0,95,0.01,,,0.02,0.0,meteohub,2013-10-18 04:51:00,
2013-10-18 00:56:00,63.7,62.2,29.69,South,170,8.0,13.0,95,0.01,,,0.02,0.0,meteohub,2013-10-18 04:56:00,
2013-10-18 01:01:00,63.7,61.9,29.69,SSW,205,10.0,12.0,94,0.01,,,0.02,0.0,meteohub,2013-10-18 05:01:00,
2013-10-18 01:07:00,63.7,61.9,29.69,SSW,207,5.0,17.0,94,0.01,,,0.02,0.0,meteohub,2013-10-18 05:07:00,
2013-10-18 01:12:00,63.7,61.9,29.68,SSE,156,5.0,17.0,94,0.02,,,0.03,0.0,meteohub,2013-10-18 05:12:00,
2013-10-18 01:17:00,63.7,61.9,29.68,SSE,154,5.0,10.0,94,0.02,,,0.03,0.0,meteohub,2013-10-18 05:17:00,
2013-10-18 01:22:00,63.7,61.9,29.68,South,184,10.0,12.0,94,0.02,,,0.03,0.0,meteohub,2013-10-18 05:22:00,
2013-10-18 01:27:00,63.9,62.1,29.68,SE,142,11.0,12.0,94,0.02,,,0.03,0.0,meteohub,2013-10-18 05:27:00,
2013-10-18 01:32:00,63.9,62.1,29.68,SSW,194,6.0,12.0,94,0.02,,,0.03,0.0,meteohub,2013-10-18 05:32:00,
2013-10-18 01:37:00,64.0,62.2,29.68,SW,216,7.0,14.0,94,0.02,,,0.03,0.0,meteohub,2013-10-18 05:37:00,
2013-10-18 01:42:00,64.0,62.2,29.67,SSE,163,2.0,14.0,94,0.02,,,0.03,0.0,meteohub,2013-10-18 05:42:00,
2013-10-18 01:47:00,64.2,62.4,29.67,SSW,196,5.0,15.0,94,0.01,,,0.03,0.0,meteohub,2013-10-18 05:47:00,
2013-10-18 01:52:00,64.4,62.4,29.67,South,182,7.0,16.0,93,0.01,,,0.03,0.0,meteohub,2013-10-18 05:52:00,
2013-10-18 01:57:00,64.6,62.4,29.67,SSW,204,11.0,21.0,93,0.01,,,0.03,0.0,meteohub,2013-10-18 05:57:00,
2013-10-18 02:02:00,64.8,62.6,29.67,South,170,5.0,21.0,93,0.01,,,0.03,0.0,meteohub,2013-10-18 06:02:00,
2013-10-18 02:07:00,64.8,62.6,29.66,SSW,200,3.0,22.0,93,0.01,,,0.03,0.0,meteohub,2013-10-18 06:07:00,
2013-10-18 02:12:00,64.8,62.6,29.66,SSW,205,9.0,22.0,93,0.00,,,0.03,0.0,meteohub,2013-10-18 06:12:00,
2013-10-18 02:17:00,64.8,62.6,29.66,South,177,9.0,17.0,93,0.00,,,0.03,0.0,meteohub,2013-10-18 06:17:00,
2013-10-18 02:22:00,64.8,62.6,29.65,South,171,7.0,15.0,93,0.00,,,0.03,0.0,meteohub,2013-10-18 06:22:00,
2013-10-18 02:27:00,64.8,62.6,29.66,South,181,6.0,16.0,93,0.00,,,0.03,0.0,meteohub,2013-10-18 06:27:00,
2013-10-18 02:32:00,64.8,62.6,29.66,SSW,212,6.0,16.0,93,0.00,,,0.03,0.0,meteohub,2013-10-18 06:32:00,
2013-10-18 02:37:00,64.8,62.6,29.66,SE,143,7.0,16.0,93,0.00,,,0.03,0.0,meteohub,2013-10-18 06:37:00,
2013-10-18 02:42:00,64.8,62.6,29.65,SW,215,3.0,14.0,93,0.00,,,0.03,0.0,meteohub,2013-10-18 06:42:00,
2013-10-18 02:47:00,64.9,62.8,29.65,South,190,5.0,14.0,93,0.00,,,0.03,0.0,meteohub,2013-10-18 06:47:00,
2013-10-18 02:52:00,64.9,62.8,29.65,SSW,200,5.0,14.0,93,0.00,,,0.03,0.0,meteohub,2013-10-18 06:52:00,
2013-10-18 02:57:00,64.9,62.8,29.65,SW,233,8.0,14.0,93,0.00,,,0.03,0.0,meteohub,2013-10-18 06:57:00,
2013-10-18 03:02:00,65.1,63.0,29.65,SW,222,2.0,16.0,93,0.00,,,0.03,0.0,meteohub,2013-10-18 07:02:00,
2013-10-18 03:07:00,65.1,63.0,29.64,South,179,7.0,16.0,93,0.00,,,0.03,0.0,meteohub,2013-10-18 07:07:00,
2013-10-18 03:12:00,65.1,63.0,29.64,SW,221,9.0,16.0,93,0.00,,,0.03,0.0,meteohub,2013-10-18 07:12:00,
2013-10-18 03:17:00,65.1,63.0,29.64,South,184,9.0,14.0,93,0.00,,,0.03,0.0,meteohub,2013-10-18 07:17:00,
2013-10-18 03:22:00,65.1,63.0,29.64,South,191,8.0,14.0,93,0.00,,,0.03,0.0,meteohub,2013-10-18 07:22:00,
2013-10-18 03:27:00,65.1,63.0,29.64,South,174,4.0,14.0,93,0.00,,,0.03,0.0,meteohub,2013-10-18 07:27:00,
2013-10-18 03:32:00,65.1,63.0,29.64,SW,226,11.0,13.0,93,0.00,,,0.03,0.0,meteohub,2013-10-18 07:32:00,
2013-10-18 03:37:00,65.3,63.1,29.63,SSE,163,6.0,12.0,93,0.00,,,0.03,0.0,meteohub,2013-10-18 07:37:00,
2013-10-18 03:42:00,65.5,63.3,29.64,SW,224,5.0,16.0,93,0.00,,,0.03,0.0,meteohub,2013-10-18 07:42:00,
2013-10-18 03:47:00,65.5,63.3,29.65,WNW,286,4.0,18.0,93,0.00,,,0.03,0.0,meteohub,2013-10-18 07:47:00,
2013-10-18 03:52:00,65.5,63.3,29.65,NW,304,5.0,18.0,93,0.00,,,0.03,0.0,meteohub,2013-10-18 07:52:00,
2013-10-18 03:57:00,65.5,63.3,29.65,SW,219,4.0,16.0,93,0.00,,,0.03,0.0,meteohub,2013-10-18 07:57:00,
2013-10-18 04:02:00,65.5,63.3,29.65,West,275,5.0,15.0,93,0.00,,,0.03,0.0,meteohub,2013-10-18 08:02:00,
2013-10-18 04:07:00,65.5,63.3,29.65,SSW,213,5.0,15.0,93,0.00,,,0.03,0.0,meteohub,2013-10-18 08:07:00,
2013-10-18 04:12:00,65.5,63.3,29.65,SW,214,6.0,15.0,93,0.00,,,0.03,0.0,meteohub,2013-10-18 08:12:00,
2013-10-18 04:17:00,65.5,63.1,29.65,SW,236,7.0,14.0,92,0.00,,,0.03,0.0,meteohub,2013-10-18 08:17:00,
2013-10-18 04:22:00,65.5,63.1,29.65,South,181,1.0,14.0,92,0.00,,,0.03,0.0,meteohub,2013-10-18 08:22:00,
2013-10-18 04:27:00,65.5,63.1,29.65,NW,306,0.0,14.0,92,0.00,,,0.03,0.0,meteohub,2013-10-18 08:27:00,
2013-10-18 04:32:00,65.3,63.0,29.65,SE,145,4.0,12.0,92,0.00,,,0.03,0.0,meteohub,2013-10-18 08:32:00,
2013-10-18 04:37:00,65.1,62.8,29.65,SW,217,5.0,11.0,92,0.00,,,0.03,0.0,meteohub,2013-10-18 08:37:00,
2013-10-18 04:42:00,64.9,62.6,29.66,WNW,288,6.0,11.0,92,0.00,,,0.03,0.0,meteohub,2013-10-18 08:42:00,
2013-10-18 04:47:00,64.8,62.1,29.66,SW,234,2.0,12.0,91,0.00,,,0.03,0.0,meteohub,2013-10-18 08:47:00,
2013-10-18 04:52:00,64.4,61.7,29.66,NW,307,11.0,16.0,91,0.00,,,0.03,0.0,meteohub,2013-10-18 08:52:00,
2013-10-18 04:57:00,64.2,61.2,29.67,WSW,246,6.0,16.0,90,0.00,,,0.03,0.0,meteohub,2013-10-18 08:57:00,
2013-10-18 05:02:00,64.0,60.8,29.67,NW,313,7.0,14.0,89,0.00,,,0.03,0.0,meteohub,2013-10-18 09:02:00,
2013-10-18 05:07:00,63.9,59.5,29.68,WNW,298,13.0,19.0,86,0.00,,,0.03,0.0,meteohub,2013-10-18 09:07:00,
2013-10-18 05:12:00,63.7,58.8,29.68,NW,323,7.0,19.0,84,0.00,,,0.03,0.0,meteohub,2013-10-18 09:12:00,
2013-10-18 05:17:00,63.3,57.7,29.68,WNW,285,4.0,19.0,82,0.00,,,0.03,0.0,meteohub,2013-10-18 09:17:00,
2013-10-18 05:22:00,63.1,57.2,29.69,West,281,8.0,19.0,81,0.00,,,0.03,0.0,meteohub,2013-10-18 09:22:00,
2013-10-18 05:27:00,63.0,56.3,29.69,West,276,12.0,14.0,79,0.00,,,0.03,0.0,meteohub,2013-10-18 09:27:00,
2013-10-18 05:32:00,62.8,55.8,29.69,NW,310,8.0,14.0,78,0.00,,,0.03,0.0,meteohub,2013-10-18 09:32:00,
2013-10-18 05:37:00,62.4,55.0,29.69,West,278,7.0,16.0,77,0.00,,,0.03,0.0,meteohub,2013-10-18 09:37:00,
2013-10-18 05:42:00,62.2,54.9,29.69,NW,316,5.0,18.0,77,0.00,,,0.03,0.0,meteohub,2013-10-18 09:42:00,
2013-10-18 05:47:00,62.1,54.7,29.69,WNW,298,4.0,18.0,77,0.00,,,0.03,0.0,meteohub,2013-10-18 09:47:00,
2013-10-18 05:52:00,61.9,54.7,29.70,WSW,254,4.0,18.0,77,0.00,,,0.03,0.0,meteohub,2013-10-18 09:52:00,
2013-10-18 05:57:00,61.5,54.3,29.70,West,271,2.0,18.0,77,0.00,,,0.03,0.0,meteohub,2013-10-18 09:57:00,
2013-10-18 06:02:00,61.3,54.1,29.70,SW,223,0.0,11.0,77,0.00,,,0.03,0.0,meteohub,2013-10-18 10:02:00,
2013-10-18 06:07:00,61.0,54.1,29.70,WNW,298,4.0,11.0,78,0.00,,,0.03,0.0,meteohub,2013-10-18 10:07:00,
2013-10-18 06:12:00,60.6,53.8,29.70,SSW,208,6.0,11.0,78,0.00,,,0.03,0.0,meteohub,2013-10-18 10:12:00,
2013-10-18 06:17:00,60.4,53.6,29.70,NW,325,5.0,15.0,78,0.00,,,0.03,0.0,meteohub,2013-10-18 10:17:00,
2013-10-18 06:22:00,60.4,53.6,29.70,NW,304,7.0,15.0,78,0.00,,,0.03,0.0,meteohub,2013-10-18 10:22:00,
2013-10-18 06:27:00,60.3,53.4,29.70,NW,309,6.0,15.0,78,0.00,,,0.03,0.0,meteohub,2013-10-18 10:27:00,
2013-10-18 06:32:00,60.1,53.2,29.70,NW,320,0.0,15.0,78,0.00,,,0.03,0.0,meteohub,2013-10-18 10:32:00,
2013-10-18 06:37:00,60.1,53.2,29.70,NW,307,4.0,15.0,78,0.00,,,0.03,0.0,meteohub,2013-10-18 10:37:00,
2013-10-18 06:42:00,59.7,52.9,29.70,WNW,300,4.0,13.0,78,0.00,,,0.03,0.0,meteohub,2013-10-18 10:42:00,
2013-10-18 06:47:00,59.5,52.7,29.71,SW,223,2.0,8.0,78,0.00,,,0.03,0.0,meteohub,2013-10-18 10:47:00,
2013-10-18 06:52:00,59.4,52.9,29.71,West,261,0.0,8.0,79,0.00,,,0.03,0.0,meteohub,2013-10-18 10:52:00,
2013-10-18 06:57:00,59.2,52.7,29.71,West,280,4.0,7.0,79,0.00,,,0.03,0.0,meteohub,2013-10-18 10:57:00,
2013-10-18 07:02:00,59.0,52.5,29.71,West,280,0.0,7.0,79,0.00,,,0.03,0.0,meteohub,2013-10-18 11:02:00,
2013-10-18 07:07:00,58.8,52.3,29.72,WNW,292,5.0,7.0,79,0.00,,,0.03,5.0,meteohub,2013-10-18 11:07:00,
2013-10-18 07:12:00,58.6,52.2,29.72,NW,321,6.0,8.0,79,0.00,,,0.03,7.0,meteohub,2013-10-18 11:12:00,
2013-10-18 07:17:00,58.6,52.5,29.73,NW,309,5.0,8.0,80,0.00,,,0.03,9.0,meteohub,2013-10-18 11:17:00,
2013-10-18 07:22:00,58.5,52.3,29.73,WNW,284,0.0,11.0,80,0.00,,,0.03,11.0,meteohub,2013-10-18 11:22:00,
2013-10-18 07:27:00,58.5,52.3,29.73,WSW,252,0.0,11.0,80,0.00,,,0.03,12.0,meteohub,2013-10-18 11:27:00,
2013-10-18 07:32:00,58.5,52.3,29.73,West,259,0.0,7.0,80,0.00,,,0.03,16.0,meteohub,2013-10-18 11:32:00,
2013-10-18 07:37:00,58.5,52.3,29.73,SW,224,4.0,7.0,80,0.00,,,0.03,16.0,meteohub,2013-10-18 11:37:00,
2013-10-18 07:42:00,58.5,52.3,29.74,SW,236,3.0,10.0,80,0.00,,,0.03,19.0,meteohub,2013-10-18 11:42:00,
2013-10-18 07:47:00,58.6,52.5,29.74,West,280,0.0,10.0,80,0.00,,,0.03,42.0,meteohub,2013-10-18 11:47:00,
2013-10-18 07:52:00,58.8,52.7,29.74,West,266,3.0,12.0,80,0.00,,,0.03,53.0,meteohub,2013-10-18 11:52:00,
2013-10-18 07:57:00,59.0,52.5,29.75,SSW,207,0.0,12.0,79,0.00,,,0.03,67.0,meteohub,2013-10-18 11:57:00,
2013-10-18 08:02:00,59.2,52.7,29.75,SSW,210,0.0,12.0,79,0.00,,,0.03,81.0,meteohub,2013-10-18 12:02:00,
2013-10-18 08:07:00,59.4,52.9,29.75,SW,217,5.0,11.0,79,0.00,,,0.03,97.0,meteohub,2013-10-18 12:07:00,
2013-10-18 08:12:00,59.5,52.7,29.76,West,281,5.0,7.0,78,0.00,,,0.03,111.0,meteohub,2013-10-18 12:12:00,
2013-10-18 08:17:00,59.9,53.1,29.76,West,267,2.0,7.0,78,0.00,,,0.03,127.0,meteohub,2013-10-18 12:17:00,
2013-10-18 08:22:00,60.1,52.9,29.76,NW,313,6.0,12.0,77,0.00,,,0.03,144.0,meteohub,2013-10-18 12:22:00,
2013-10-18 08:27:00,60.3,53.1,29.76,West,263,8.0,14.0,77,0.00,,,0.03,163.0,meteohub,2013-10-18 12:27:00,
2013-10-18 08:32:00,60.4,53.2,29.76,WNW,294,6.0,14.0,77,0.00,,,0.03,181.0,meteohub,2013-10-18 12:32:00,
2013-10-18 08:37:00,60.8,53.2,29.77,WSW,254,4.0,15.0,76,0.00,,,0.03,199.0,meteohub,2013-10-18 12:37:00,
2013-10-18 08:42:00,61.0,53.4,29.77,WNW,295,6.0,15.0,76,0.00,,,0.03,214.0,meteohub,2013-10-18 12:42:00,
2013-10-18 08:47:00,61.3,53.4,29.78,West,269,5.0,15.0,75,0.00,,,0.03,230.0,meteohub,2013-10-18 12:47:00,
2013-10-18 08:52:00,61.5,53.2,29.78,NW,306,7.0,13.0,74,0.00,,,0.03,243.0,meteohub,2013-10-18 12:52:00,
2013-10-18 08:57:00,61.5,52.7,29.78,WNW,295,9.0,13.0,73,0.00,,,0.03,257.0,meteohub,2013-10-18 12:57:00,
2013-10-18 09:02:00,61.9,52.7,29.78,WNW,292,15.0,19.0,72,0.00,,,0.03,271.0,meteohub,2013-10-18 13:02:00,
2013-10-18 09:07:00,61.9,52.7,29.78,WNW,296,5.0,20.0,72,0.00,,,0.03,287.0,meteohub,2013-10-18 13:07:00,
2013-10-18 09:12:00,62.1,52.9,29.78,NW,312,4.0,20.0,72,0.00,,,0.03,297.0,meteohub,2013-10-18 13:12:00,
2013-10-18 09:17:00,62.4,52.9,29.79,SW,236,13.0,20.0,71,0.00,,,0.03,309.0,meteohub,2013-10-18 13:17:00,
2013-10-18 09:22:00,62.6,52.7,29.79,WNW,299,5.0,19.0,70,0.00,,,0.03,323.0,meteohub,2013-10-18 13:22:00,
2013-10-18 09:27:00,62.8,52.9,29.79,WNW,296,13.0,19.0,70,0.00,,,0.03,338.0,meteohub,2013-10-18 13:27:00,
2013-10-18 09:32:00,63.0,52.7,29.79,SW,223,4.0,19.0,69,0.00,,,0.03,348.0,meteohub,2013-10-18 13:32:00,
2013-10-18 09:37:00,63.7,52.9,29.79,NNW,327,7.0,17.0,68,0.00,,,0.03,360.0,meteohub,2013-10-18 13:37:00,
2013-10-18 09:42:00,63.9,53.1,29.79,NNW,335,7.0,16.0,68,0.00,,,0.03,374.0,meteohub,2013-10-18 13:42:00,
2013-10-18 09:47:00,64.0,52.0,29.80,WNW,298,7.0,16.0,65,0.00,,,0.03,385.0,meteohub,2013-10-18 13:47:00,
2013-10-18 09:52:00,64.0,52.0,29.80,North,0,8.0,28.0,65,0.00,,,0.03,396.0,meteohub,2013-10-18 13:52:00,
2013-10-18 09:57:00,64.2,51.8,29.80,SW,234,3.0,28.0,64,0.00,,,0.03,406.0,meteohub,2013-10-18 13:57:00,
2013-10-18 10:02:00,64.8,51.8,29.80,NW,304,6.0,27.0,63,0.00,,,0.03,417.0,meteohub,2013-10-18 14:02:00,
2013-10-18 10:07:00,64.9,52.0,29.80,WNW,282,6.0,23.0,63,0.00,,,0.03,429.0,meteohub,2013-10-18 14:07:00,
2013-10-18 10:12:00,65.5,52.2,29.80,NW,324,9.0,15.0,62,0.00,,,0.03,446.0,meteohub,2013-10-18 14:12:00,
2013-10-18 10:17:00,66.4,52.2,29.80,NNW,335,9.0,16.0,60,0.00,,,0.03,446.0,meteohub,2013-10-18 14:17:00,
2013-10-18 10:22:00,67.3,52.5,29.81,North,0,9.0,16.0,59,0.00,,,0.03,459.0,meteohub,2013-10-18 14:22:00,
2013-10-18 10:27:00,66.9,51.3,29.80,NNW,337,10.0,16.0,57,0.00,,,0.03,471.0,meteohub,2013-10-18 14:27:00,
2013-10-18 10:32:00,66.9,51.3,29.81,NW,306,5.0,27.0,57,0.00,,,0.03,478.0,meteohub,2013-10-18 14:32:00,
2013-10-18 10:37:00,67.3,52.0,29.81,North,355,9.0,27.0,58,0.00,,,0.03,487.0,meteohub,2013-10-18 14:37:00,
2013-10-18 10:42:00,67.6,51.8,29.81,North,5,6.0,27.0,57,0.00,,,0.03,501.0,meteohub,2013-10-18 14:42:00,
2013-10-18 10:47:00,68.2,51.8,29.81,North,0,5.0,17.0,56,0.00,,,0.03,504.0,meteohub,2013-10-18 14:47:00,
2013-10-18 10:52:00,68.2,51.4,29.81,WNW,294,11.0,19.0,55,0.00,,,0.03,513.0,meteohub,2013-10-18 14:52:00,
2013-10-18 10:57:00,68.4,51.6,29.81,NW,313,11.0,19.0,55,0.00,,,0.03,520.0,meteohub,2013-10-18 14:57:00,
2013-10-18 11:02:00,68.7,51.4,29.81,North,355,8.0,19.0,54,0.00,,,0.03,527.0,meteohub,2013-10-18 15:02:00,
2013-10-18 11:07:00,68.7,50.9,29.81,WNW,301,12.0,19.0,53,0.00,,,0.03,536.0,meteohub,2013-10-18 15:07:00,
2013-10-18 11:12:00,69.1,51.3,29.81,SW,217,3.0,19.0,53,0.00,,,0.03,543.0,meteohub,2013-10-18 15:12:00,
2013-10-18 11:17:00,68.5,51.3,29.81,WNW,303,7.0,19.0,54,0.00,,,0.03,548.0,meteohub,2013-10-18 15:17:00,
2013-10-18 11:22:00,68.2,50.9,29.81,NNW,346,5.0,15.0,54,0.00,,,0.03,554.0,meteohub,2013-10-18 15:22:00,
2013-10-18 11:27:00,68.5,51.3,29.81,NNW,333,8.0,16.0,54,0.00,,,0.03,561.0,meteohub,2013-10-18 15:27:00,
2013-10-18 11:32:00,69.1,51.3,29.81,NW,310,8.0,16.0,53,0.00,,,0.03,566.0,meteohub,2013-10-18 15:32:00,
2013-10-18 11:37:00,68.5,51.3,29.81,WSW,256,6.0,14.0,54,0.00,,,0.03,571.0,meteohub,2013-10-18 15:37:00,
2013-10-18 11:42:00,69.6,51.3,29.81,NNW,345,10.0,16.0,52,0.00,,,0.03,575.0,meteohub,2013-10-18 15:42:00,
2013-10-18 11:47:00,70.3,51.4,29.81,NNW,332,8.0,16.0,51,0.00,,,0.03,580.0,meteohub,2013-10-18 15:47:00,
2013-10-18 11:52:00,71.1,51.4,29.81,NW,317,8.0,14.0,50,0.00,,,0.03,591.0,meteohub,2013-10-18 15:52:00,
2013-10-18 11:57:00,71.6,51.4,29.81,North,10,5.0,16.0,49,0.00,,,0.03,599.0,meteohub,2013-10-18 15:57:00,
2013-10-18 12:02:00,71.6,50.9,29.81,WSW,256,7.0,16.0,48,0.00,,,0.03,598.0,meteohub,2013-10-18 16:02:00,
2013-10-18 12:07:00,70.7,51.1,29.81,NW,315,5.0,16.0,50,0.00,,,0.03,601.0,meteohub,2013-10-18 16:07:00,
2013-10-18 12:12:00,71.2,51.1,29.81,NNW,331,9.0,15.0,49,0.00,,,0.03,605.0,meteohub,2013-10-18 16:12:00,
2013-10-18 12:17:00,71.2,50.5,29.81,NW,308,2.0,15.0,48,0.00,,,0.03,619.0,meteohub,2013-10-18 16:17:00,
2013-10-18 12:22:00,70.5,50.4,29.81,NNW,331,5.0,14.0,49,0.00,,,0.03,619.0,meteohub,2013-10-18 16:22:00,
2013-10-18 12:27:00,71.6,51.4,29.81,WSW,247,3.0,13.0,49,0.00,,,0.03,659.0,meteohub,2013-10-18 16:27:00,
2013-10-18 12:32:00,71.2,50.0,29.81,West,271,2.0,15.0,47,0.00,,,0.03,631.0,meteohub,2013-10-18 16:32:00,
2013-10-18 12:37:00,71.1,50.4,29.80,North,0,5.0,15.0,48,0.00,,,0.03,615.0,meteohub,2013-10-18 16:37:00,
2013-10-18 12:42:00,71.8,50.5,29.80,NNW,344,6.0,16.0,47,0.00,,,0.03,626.0,meteohub,2013-10-18 16:42:00,
2013-10-18 12:47:00,72.9,50.9,29.80,West,279,5.0,16.0,46,0.00,,,0.03,606.0,meteohub,2013-10-18 16:47:00,
2013-10-18 12:52:00,70.9,50.7,29.80,NW,309,12.0,16.0,49,0.00,,,0.03,606.0,meteohub,2013-10-18 16:52:00,
2013-10-18 12:57:00,69.3,50.4,29.80,SW,231,4.0,17.0,51,0.00,,,0.03,599.0,meteohub,2013-10-18 16:57:00,
2013-10-18 13:02:00,69.3,49.8,29.80,SW,222,11.0,17.0,50,0.00,,,0.03,603.0,meteohub,2013-10-18 17:02:00,
2013-10-18 13:07:00,70.2,51.3,29.80,NNW,346,8.0,17.0,51,0.00,,,0.03,599.0,meteohub,2013-10-18 17:07:00,
2013-10-18 13:12:00,72.3,50.9,29.80,SW,232,2.0,16.0,47,0.00,,,0.03,596.0,meteohub,2013-10-18 17:12:00,
2013-10-18 13:17:00,71.1,50.4,29.80,SW,232,11.0,16.0,48,0.00,,,0.03,594.0,meteohub,2013-10-18 17:17:00,
2013-10-18 13:22:00,70.0,50.0,29.80,West,265,11.0,14.0,49,0.00,,,0.03,591.0,meteohub,2013-10-18 17:22:00,
2013-10-18 13:27:00,71.2,50.5,29.80,NW,315,8.0,18.0,48,0.00,,,0.03,585.0,meteohub,2013-10-18 17:27:00,
2013-10-18 13:32:00,71.2,49.5,29.80,SW,225,8.0,18.0,46,0.00,,,0.03,585.0,meteohub,2013-10-18 17:32:00,
2013-10-18 13:37:00,69.8,49.3,29.80,WSW,245,4.0,18.0,48,0.00,,,0.03,575.0,meteohub,2013-10-18 17:37:00,
2013-10-18 13:42:00,69.6,49.1,29.80,SSW,210,6.0,14.0,48,0.00,,,0.03,580.0,meteohub,2013-10-18 17:42:00,
2013-10-18 13:47:00,69.4,49.5,29.80,WNW,283,2.0,15.0,49,0.00,,,0.03,612.0,meteohub,2013-10-18 17:47:00,
2013-10-18 13:52:00,71.2,49.5,29.80,NW,309,8.0,15.0,46,0.00,,,0.03,566.0,meteohub,2013-10-18 17:52:00,
2013-10-18 13:57:00,72.5,49.3,29.80,NW,323,6.0,15.0,44,0.00,,,0.03,582.0,meteohub,2013-10-18 17:57:00,
2013-10-18 14:02:00,71.8,49.3,29.80,West,280,5.0,18.0,45,0.00,,,0.03,559.0,meteohub,2013-10-18 18:02:00,
2013-10-18 14:07:00,70.3,49.1,29.80,WNW,290,9.0,18.0,47,0.00,,,0.03,554.0,meteohub,2013-10-18 18:07:00,
2013-10-18 14:12:00,70.5,48.7,29.81,NNW,328,7.0,18.0,46,0.00,,,0.03,536.0,meteohub,2013-10-18 18:12:00,
2013-10-18 14:17:00,71.1,49.8,29.80,WNW,290,6.0,17.0,47,0.00,,,0.03,543.0,meteohub,2013-10-18 18:17:00,
2013-10-18 14:22:00,73.0,50.4,29.80,SW,221,5.0,14.0,45,0.00,,,0.03,524.0,meteohub,2013-10-18 18:22:00,
2013-10-18 14:27:00,71.2,48.7,29.80,WNW,290,9.0,18.0,45,0.00,,,0.03,515.0,meteohub,2013-10-18 18:27:00,
2013-10-18 14:32:00,71.8,49.8,29.80,WNW,298,2.0,21.0,46,0.00,,,0.03,519.0,meteohub,2013-10-18 18:32:00,
2013-10-18 14:37:00,71.8,49.3,29.81,SW,216,5.0,21.0,45,0.00,,,0.03,492.0,meteohub,2013-10-18 18:37:00,
2013-10-18 14:42:00,70.2,48.4,29.81,West,278,12.0,18.0,46,0.00,,,0.03,492.0,meteohub,2013-10-18 18:42:00,
2013-10-18 14:47:00,69.1,48.6,29.81,South,188,3.0,18.0,48,0.00,,,0.03,482.0,meteohub,2013-10-18 18:47:00,
2013-10-18 14:52:00,70.0,48.7,29.81,North,350,5.0,15.0,47,0.00,,,0.03,471.0,meteohub,2013-10-18 18:52:00,
2013-10-18 14:57:00,71.2,49.5,29.81,WSW,240,10.0,15.0,46,0.00,,,0.03,461.0,meteohub,2013-10-18 18:57:00,
2013-10-18 15:02:00,71.4,48.9,29.81,NW,323,10.0,13.0,45,0.00,,,0.03,452.0,meteohub,2013-10-18 19:02:00,
2013-10-18 15:07:00,72.3,49.1,29.81,NW,324,7.0,19.0,44,0.00,,,0.03,452.0,meteohub,2013-10-18 19:07:00,
2013-10-18 15:12:00,71.1,49.3,29.81,NW,318,7.0,19.0,46,0.00,,,0.03,457.0,meteohub,2013-10-18 19:12:00,
2013-10-18 15:17:00,72.3,49.8,29.81,NNW,331,7.0,19.0,45,0.00,,,0.03,424.0,meteohub,2013-10-18 19:17:00,
2013-10-18 15:22:00,72.7,48.9,29.81,WNW,287,0.0,18.0,43,0.00,,,0.03,410.0,meteohub,2013-10-18 19:22:00,
2013-10-18 15:27:00,72.3,48.6,29.81,WNW,302,8.0,15.0,43,0.00,,,0.03,415.0,meteohub,2013-10-18 19:27:00,
2013-10-18 15:32:00,71.1,47.5,29.81,West,279,11.0,22.0,43,0.00,,,0.03,315.0,meteohub,2013-10-18 19:32:00,
2013-10-18 15:37:00,71.2,48.2,29.81,WNW,288,4.0,23.0,44,0.00,,,0.03,380.0,meteohub,2013-10-18 19:37:00,
2013-10-18 15:42:00,71.1,48.0,29.81,WNW,291,8.0,23.0,44,0.00,,,0.03,362.0,meteohub,2013-10-18 19:42:00,
2013-10-18 15:47:00,71.1,48.0,29.81,WNW,296,7.0,15.0,44,0.00,,,0.03,350.0,meteohub,2013-10-18 19:47:00,
2013-10-18 15:52:00,70.3,47.5,29.81,WNW,303,6.0,13.0,44,0.00,,,0.03,332.0,meteohub,2013-10-18 19:52:00,
2013-10-18 15:57:00,71.8,48.0,29.81,SW,221,8.0,13.0,43,0.00,,,0.03,320.0,meteohub,2013-10-18 19:57:00,
2013-10-18 16:02:00,70.5,47.5,29.81,West,270,2.0,15.0,44,0.00,,,0.03,309.0,meteohub,2013-10-18 20:02:00,
2013-10-18 16:07:00,70.9,47.3,29.81,NW,311,5.0,15.0,43,0.00,,,0.03,295.0,meteohub,2013-10-18 20:07:00,
2013-10-18 16:12:00,70.7,47.1,29.81,NNW,336,7.0,15.0,43,0.00,,,0.03,281.0,meteohub,2013-10-18 20:12:00,
2013-10-18 16:17:00,71.1,47.5,29.81,NW,305,7.0,15.0,43,0.00,,,0.03,267.0,meteohub,2013-10-18 20:17:00,
2013-10-18 16:22:00,70.3,47.5,29.81,NNW,340,9.0,16.0,44,0.00,,,0.03,253.0,meteohub,2013-10-18 20:22:00,
2013-10-18 16:27:00,71.2,47.7,29.81,NNW,335,6.0,16.0,43,0.00,,,0.03,239.0,meteohub,2013-10-18 20:27:00,
2013-10-18 16:32:00,71.2,47.7,29.81,WNW,303,4.0,16.0,43,0.00,,,0.03,223.0,meteohub,2013-10-18 20:32:00,
2013-10-18 16:37:00,70.9,47.8,29.82,WSW,254,3.0,11.0,44,0.00,,,0.03,206.0,meteohub,2013-10-18 20:37:00,
2013-10-18 16:42:00,70.3,47.5,29.81,NNW,329,6.0,11.0,44,0.00,,,0.03,192.0,meteohub,2013-10-18 20:42:00,
2013-10-18 16:47:00,70.3,47.5,29.81,NW,326,0.0,12.0,44,0.00,,,0.03,176.0,meteohub,2013-10-18 20:47:00,
2013-10-18 16:52:00,70.2,47.3,29.81,NW,317,5.0,12.0,44,0.00,,,0.03,158.0,meteohub,2013-10-18 20:52:00,
2013-10-18 16:57:00,70.2,47.8,29.81,NW,305,6.0,12.0,45,0.00,,,0.03,141.0,meteohub,2013-10-18 20:57:00,
2013-10-18 17:02:00,70.2,47.3,29.81,West,265,3.0,9.0,44,0.00,,,0.03,123.0,meteohub,2013-10-18 21:02:00,
2013-10-18 17:07:00,69.4,47.1,29.82,ENE,57,1.0,9.0,45,0.00,,,0.03,105.0,meteohub,2013-10-18 21:07:00,
2013-10-18 17:12:00,70.0,47.7,29.82,NNW,339,5.0,9.0,45,0.00,,,0.03,90.0,meteohub,2013-10-18 21:12:00,
2013-10-18 17:17:00,69.3,46.9,29.82,NW,312,5.0,10.0,45,0.00,,,0.03,77.0,meteohub,2013-10-18 21:17:00,
2013-10-18 17:22:00,68.7,47.1,29.82,NW,307,0.0,10.0,46,0.00,,,0.03,63.0,meteohub,2013-10-18 21:22:00,
2013-10-18 17:27:00,68.2,46.6,29.83,WNW,293,1.0,10.0,46,0.00,,,0.03,51.0,meteohub,2013-10-18 21:27:00,
2013-10-18 17:32:00,67.6,46.0,29.82,WNW,297,0.0,9.0,46,0.00,,,0.03,23.0,meteohub,2013-10-18 21:32:00,
2013-10-18 17:37:00,67.3,46.4,29.83,WNW,297,0.0,9.0,47,0.00,,,0.03,19.0,meteohub,2013-10-18 21:37:00,
2013-10-18 17:42:00,66.4,46.6,29.83,WNW,284,0.0,6.0,49,0.00,,,0.03,16.0,meteohub,2013-10-18 21:42:00,
2013-10-18 17:47:00,65.7,46.6,29.83,SW,219,4.0,4.0,50,0.00,,,0.03,14.0,meteohub,2013-10-18 21:47:00,
2013-10-18 17:52:00,65.3,46.2,29.83,WNW,284,0.0,6.0,50,0.00,,,0.03,12.0,meteohub,2013-10-18 21:52:00,
2013-10-18 17:57:00,64.9,45.9,29.83,WSW,257,0.0,8.0,50,0.00,,,0.03,9.0,meteohub,2013-10-18 21:57:00,
2013-10-18 18:02:00,64.8,45.7,29.84,West,259,0.0,8.0,50,0.00,,,0.03,5.0,meteohub,2013-10-18 22:02:00,
2013-10-18 18:07:00,64.6,45.5,29.84,West,260,0.0,5.0,50,0.00,,,0.03,0.0,meteohub,2013-10-18 22:07:00,
2013-10-18 18:12:00,63.9,45.9,29.84,West,260,0.0,4.0,52,0.00,,,0.03,0.0,meteohub,2013-10-18 22:12:00,
2013-10-18 18:17:00,63.0,46.9,29.84,West,260,0.0,3.0,56,0.00,,,0.03,0.0,meteohub,2013-10-18 22:17:00,
2013-10-18 18:22:00,61.7,47.3,29.85,West,260,0.0,1.0,59,0.00,,,0.03,0.0,meteohub,2013-10-18 22:22:00,
2013-10-18 18:27:00,60.8,46.8,29.85,West,260,0.0,0.0,60,0.00,,,0.03,0.0,meteohub,2013-10-18 22:27:00,
2013-10-18 18:32:00,61.0,46.6,29.86,SW,236,1.0,0.0,59,0.00,,,0.03,0.0,meteohub,2013-10-18 22:32:00,
2013-10-18 18:37:00,61.3,46.0,29.85,WSW,237,0.0,4.0,57,0.00,,,0.03,0.0,meteohub,2013-10-18 22:37:00,
2013-10-18 18:42:00,61.9,45.5,29.86,WNW,282,2.0,5.0,55,0.00,,,0.03,0.0,meteohub,2013-10-18 22:42:00,
2013-10-18 18:47:00,61.9,45.5,29.86,West,281,0.0,5.0,55,0.00,,,0.03,0.0,meteohub,2013-10-18 22:47:00,
2013-10-18 18:52:00,61.7,45.9,29.86,West,280,0.0,5.0,56,0.00,,,0.03,0.0,meteohub,2013-10-18 22:52:00,
2013-10-18 18:57:00,61.5,46.2,29.86,SSW,200,0.0,6.0,57,0.00,,,0.03,0.0,meteohub,2013-10-18 22:57:00,
2013-10-18 19:02:00,61.2,45.9,29.86,SSW,202,0.0,6.0,57,0.00,,,0.03,0.0,meteohub,2013-10-18 23:02:00,
2013-10-18 19:07:00,61.0,45.1,29.87,SSW,203,0.0,6.0,56,0.00,,,0.03,0.0,meteohub,2013-10-18 23:07:00,
2013-10-18 19:12:00,60.4,45.7,29.87,SSW,203,0.0,3.0,58,0.00,,,0.03,0.0,meteohub,2013-10-18 23:12:00,
2013-10-18 19:17:00,60.4,44.6,29.86,SSW,209,2.0,3.0,56,0.00,,,0.03,0.0,meteohub,2013-10-18 23:17:00,
2013-10-18 19:22:00,60.4,45.1,29.87,West,259,0.0,4.0,57,0.00,,,0.03,0.0,meteohub,2013-10-18 23:22:00,
2013-10-18 19:27:00,60.1,45.3,29.87,West,260,0.0,4.0,58,0.00,,,0.03,0.0,meteohub,2013-10-18 23:27:00,
2013-10-18 19:32:00,59.4,45.9,29.88,West,260,0.0,4.0,61,0.00,,,0.03,0.0,meteohub,2013-10-18 23:32:00,
2013-10-18 19:37:00,59.2,45.3,29.88,West,260,0.0,3.0,60,0.00,,,0.03,0.0,meteohub,2013-10-18 23:37:00,
2013-10-18 19:42:00,59.4,45.0,29.88,WNW,287,0.0,3.0,59,0.00,,,0.03,0.0,meteohub,2013-10-18 23:42:00,
2013-10-18 19:47:00,59.5,45.1,29.88,West,278,0.0,7.0,59,0.00,,,0.03,0.0,meteohub,2013-10-18 23:47:00,
2013-10-18 19:52:00,59.5,45.1,29.88,WNW,295,0.0,7.0,59,0.00,,,0.03,0.0,meteohub,2013-10-18 23:52:00,
2013-10-18 19:57:00,59.5,45.1,29.88,WNW,295,0.0,7.0,59,0.00,,,0.03,0.0,meteohub,2013-10-18 23:57:00,
2013-10-18 20:02:00,59.5,45.1,29.88,WNW,288,0.0,7.0,59,0.00,,,0.03,0.0,meteohub,2013-10-19 00:02:00,
2013-10-18 20:07:00,59.5,45.1,29.89,WNW,289,4.0,5.0,59,0.00,,,0.00,0.0,meteohub,2013-10-19 00:07:00,
2013-10-18 20:12:00,59.4,45.0,29.89,NW,304,5.0,6.0,59,0.00,,,0.00,0.0,meteohub,2013-10-19 00:12:00,
2013-10-18 20:18:00,59.4,45.0,29.89,NW,304,0.0,7.0,59,0.00,,,0.00,0.0,meteohub,2013-10-19 00:18:00,
2013-10-18 20:23:00,59.4,45.0,29.89,WNW,295,1.0,7.0,59,0.00,,,0.00,0.0,meteohub,2013-10-19 00:23:00,
2013-10-18 20:28:00,59.2,44.8,29.89,WNW,295,0.0,7.0,59,0.00,,,0.00,0.0,meteohub,2013-10-19 00:28:00,
2013-10-18 20:33:00,59.2,44.8,29.90,WNW,288,2.0,5.0,59,0.00,,,0.00,0.0,meteohub,2013-10-19 00:33:00,
2013-10-18 20:38:00,59.0,44.8,29.90,WNW,290,4.0,5.0,59,0.00,,,0.00,0.0,meteohub,2013-10-19 00:38:00,
2013-10-18 20:43:00,58.8,44.6,29.90,WNW,288,2.0,5.0,59,0.00,,,0.00,0.0,meteohub,2013-10-19 00:43:00,
2013-10-18 20:49:00,59.0,44.8,29.90,WNW,301,1.0,6.0,59,0.00,,,0.00,0.0,meteohub,2013-10-19 00:49:00,
2013-10-18 20:54:00,59.0,44.8,29.90,WNW,300,2.0,6.0,59,0.00,,,0.00,0.0,meteohub,2013-10-19 00:54:00,
2013-10-18 20:59:00,58.8,44.6,29.90,WNW,300,0.0,6.0,59,0.00,,,0.00,0.0,meteohub,2013-10-19 00:59:00,
2013-10-18 21:04:00,58.5,44.6,29.90,WNW,300,1.0,6.0,60,0.00,,,0.00,0.0,meteohub,2013-10-19 01:04:00,
2013-10-18 21:09:00,57.7,44.8,29.90,WNW,300,0.0,5.0,62,0.00,,,0.00,0.0,meteohub,2013-10-19 01:09:00,
2013-10-18 21:14:00,57.6,44.6,29.91,WNW,300,0.0,5.0,62,0.00,,,0.00,0.0,meteohub,2013-10-19 01:14:00,
2013-10-18 21:19:00,57.4,44.4,29.91,WNW,300,1.0,5.0,62,0.00,,,0.00,0.0,meteohub,2013-10-19 01:19:00,
2013-10-18 21:25:00,56.8,44.4,29.91,WNW,300,1.0,5.0,63,0.00,,,0.00,0.0,meteohub,2013-10-19 01:25:00,
2013-10-18 21:30:00,56.5,44.4,29.91,WNW,300,4.0,4.0,64,0.00,,,0.00,0.0,meteohub,2013-10-19 01:30:00,
2013-10-18 21:35:00,56.5,44.4,29.91,WNW,299,5.0,5.0,64,0.00,,,0.00,0.0,meteohub,2013-10-19 01:35:00,
2013-10-18 21:40:00,56.3,44.6,29.91,WNW,299,1.0,5.0,65,0.00,,,0.00,0.0,meteohub,2013-10-19 01:40:00,
2013-10-18 21:45:00,55.9,44.8,29.91,WNW,299,2.0,5.0,66,0.00,,,0.00,0.0,meteohub,2013-10-19 01:45:00,
2013-10-18 21:50:00,55.2,44.8,29.91,WNW,299,0.0,5.0,68,0.00,,,0.00,0.0,meteohub,2013-10-19 01:50:00,
2013-10-18 21:56:00,55.0,44.6,29.92,WNW,299,2.0,4.0,68,0.00,,,0.00,0.0,meteohub,2013-10-19 01:56:00,
2013-10-18 22:01:00,54.5,44.6,29.92,WNW,302,2.0,7.0,69,0.00,,,0.00,0.0,meteohub,2013-10-19 02:01:00,
2013-10-18 22:06:00,54.7,44.2,29.92,WNW,302,2.0,7.0,68,0.00,,,0.00,0.0,meteohub,2013-10-19 02:06:00,
2013-10-18 22:11:00,55.0,44.2,29.92,NW,307,1.0,7.0,67,0.00,,,0.00,0.0,meteohub,2013-10-19 02:11:00,
2013-10-18 22:16:00,55.6,44.8,29.92,NW,307,2.0,7.0,67,0.00,,,0.00,0.0,meteohub,2013-10-19 02:16:00,
2013-10-18 22:21:00,55.0,44.6,29.92,NW,308,1.0,7.0,68,0.00,,,0.00,0.0,meteohub,2013-10-19 02:21:00,
2013-10-18 22:26:00,54.1,44.6,29.92,NW,308,0.0,5.0,70,0.00,,,0.00,0.0,meteohub,2013-10-19 02:26:00,
2013-10-18 22:31:00,53.6,44.8,29.93,NW,308,0.0,5.0,72,0.00,,,0.00,0.0,meteohub,2013-10-19 02:31:00,
2013-10-18 22:37:00,53.1,44.6,29.93,NW,308,2.0,4.0,73,0.00,,,0.00,0.0,meteohub,2013-10-19 02:37:00,
2013-10-18 22:42:00,53.1,44.6,29.93,NW,308,1.0,4.0,73,0.00,,,0.00,0.0,meteohub,2013-10-19 02:42:00,
2013-10-18 22:47:00,53.1,45.0,29.93,NW,308,0.0,4.0,74,0.00,,,0.00,0.0,meteohub,2013-10-19 02:47:00,
2013-10-18 22:52:00,52.9,44.8,29.93,NW,308,0.0,5.0,74,0.00,,,0.00,0.0,meteohub,2013-10-19 02:52:00,
2013-10-18 22:57:00,52.3,44.6,29.93,NW,309,0.0,5.0,75,0.00,,,0.00,0.0,meteohub,2013-10-19 02:57:00,
2013-10-18 23:02:00,51.6,44.2,29.93,NW,309,0.0,5.0,76,0.00,,,0.00,0.0,meteohub,2013-10-19 03:02:00,
2013-10-18 23:07:00,51.1,44.4,29.94,NW,309,0.0,1.0,78,0.00,,,0.00,0.0,meteohub,2013-10-19 03:07:00,
2013-10-18 23:12:00,50.5,44.2,29.94,NW,309,0.0,0.0,79,0.00,,,0.00,0.0,meteohub,2013-10-19 03:12:00,
2013-10-18 23:17:00,50.2,44.2,29.94,NW,309,0.0,0.0,80,0.00,,,0.00,0.0,meteohub,2013-10-19 03:17:00,
2013-10-18 23:22:00,49.8,44.2,29.94,NW,309,0.0,0.0,81,0.00,,,0.00,0.0,meteohub,2013-10-19 03:22:00,
2013-10-18 23:27:00,49.5,44.2,29.94,NW,309,0.0,0.0,82,0.00,,,0.00,0.0,meteohub,2013-10-19 03:27:00,
2013-10-18 23:32:00,49.1,44.2,29.94,NW,309,0.0,0.0,83,0.00,,,0.00,0.0,meteohub,2013-10-19 03:32:00,
2013-10-18 23:37:00,48.7,43.9,29.94,NW,309,0.0,0.0,83,0.00,,,0.00,0.0,meteohub,2013-10-19 03:37:00,
2013-10-18 23:42:00,48.6,43.9,29.94,NW,309,0.0,0.0,84,0.00,,,0.00,0.0,meteohub,2013-10-19 03:42:00,
2013-10-18 23:47:00,48.4,43.7,29.94,NW,309,0.0,0.0,84,0.00,,,0.00,0.0,meteohub,2013-10-19 03:47:00,
2013-10-18 23:52:00,48.4,43.7,29.94,NW,309,0.0,0.0,84,0.00,,,0.00,0.0,meteohub,2013-10-19 03:52:00,
2013-10-18 23:57:00,48.0,43.7,29.94,NW,309,0.0,0.0,85,0.00,,,0.00,0.0,meteohub,2013-10-19 03:57:00,